SCP
0 -0 0 -0 -0 -0 -0 -0 -0 -0 -0 -0 -0 -0 -0 -0 -0 -0 -0 -0 -0 -0 0 -0 0 0 0 0 0 0 0 0 0 0 0 0 0 0 -0 -0 0 -0 -0
-0 -0 -0 -0 -0 -0 -0 -0 -0 -0 -0 -0 -0 -0 -0 -0 0 0 0 0 -0 -0 -0 -0 -0 -0 0 0 0 0 0 0 0 0 0 0 0 0 0 0 0 0 0
0 -0 -0 -0 -0 -0 -0 -0 -0 -0 -0 -0 -0 -0 0 0 0 0 0 0 0 0 0 0 0 0 0 0 0 0 0 0 0 0 0 0 0 0 0 0 0 0 0
0 -0 -0 0 -0 -0 -0 -0 -0 -0 -0 -0 -0 -0 -0 -0 -0 0 0 0 0 0 0 0 0 0 0 0 0 0 0 0 0 0 0 0 0 0 0 0 0 0 0
-0 -0 -0 -0 -0 -0 -0 -0 -0 -0 -0 -0 -0 -0 -0 -0 -0 0 0 -0 -0 -0 -0 0 0 0 0 0 0 0 0 0 0 0 0 0 0 0 0 0 0 0 0
-0 -0 -0 -0 -0 -0 -0 -0 -0 -0 -0 -0 -0 -0 0 0 0 0 0 -0 0 -0 -0 -0 0 0 0 0 0 0 0 0 0 0 0 0 0 0 0 0 0 0 0
0 0 -0 -0 0 -0 -0 -0 -0 -0 -0 -0 -0 0 0 0 0 0 0 0 0 -0 -0 0 0 0 0 0 0 0 0 0 0 0 0 0 0 0 0 0 0 0 0
-0 0 -0 -0 -0 -0 -0 0 -0 -0 -0 0 0 0 0 0 0 0 0 0 0 0 0 0 0 0 0 0 0 0 0 0 0 0 0 0 0 0 0 0 0 0 0
-0 -0 0 0 -0 -0 0 0 0 0 0 0 0 0 0 0 0 0 0 0 0 0 0 0 0 0 0 0 0 0 0 0 0 0 0 0 0 0 0 0 0 0 0
-0 0 0 0 0 0 0 0 0 0 0 0 0 0 0 0 0 0 0 0 0 0 0 0 0 0 0 0 0 0 0 0 0 0 0 0 0 0 0 0 0 0 0
0 0 0 0 0 0 0 0 0 0 0 0 0 0 0 0 0 0 0 0 0 0 0 0 0 0 0 0 0 0 0 0 0 0 0 0 0 0 0 0 0 0 0
0 0 0 0 0 0 0 0 0 0 0 0 0 0 0 0 0 0 0 0 0 0 0 0 0 0 0 0 0 0 0 0 0 0 0 0 0 0 0 0 0 0 0
0 0 0 0 0 0 0 0 0 0 0 0 0 0 0 0 0 0 0 0 0 0 0 0 0 0 0 0 0 0 0 0 0 0 0 0 0 0 0 0 0 0 0
0 0 0 0 0 0 0 0 0 0 0 0 0 0 0 0 0 0 0 0 0 0 0 0 0 0 0 0 0 0 0 0 0 0 0 0 0 0 0 0 0 0 0
0 0 0 0 0 0 0 0 0 0 0 0 0 0 0 0 0 0 0 0 0 0 0 0 0 0 0 0 0 0 0 0 0 0 0 0 0 0 0 0 0 0 0
0 0 0 0 0 0 0 0 0 0 0 0 0 0 0 0 0 0 0 0 0 0 0 0 0 0 0 0 0 0 0 0 0 0 0 0 0 0 0 0 0 0 0
0 0 0 0 0 0 0 0 0 0 0 0 0 0 0 0 0 0 0 0 0 0 0 0 0 0 0 0 0 0 0 0 0 0 0 0 0 0 0 0 0 0 0
0 0 0 0 0 0 0 0 0 0 0 0 0 0 0 0 0 0 0 0 0 0 0 0 0 0 0 0 0 0 0 0 0 0 0 0 0 0 0 0 0 0 0
0 0 0 0 0 0 0 0 0 0 0 0 0 0 0 0 0 0 0 0 0 0 0 0 0 0 0 0 0 0 0 0 0 0 0 0 0 0 0 0 0 0 0
0 0 0 0 0 0 0 0 0 0 0 0 0 0 0 0 0 0 0 0 0 0 0 0 0 0 0 0 0 0 0 0 0 0 0 0 0 0 0 0 0 0 0
0 0 0 0 0 0 0 0 0 0 0 0 0 0 0 0 0 0 0 0 0 0 0 0 0 0 0 0 0 0 0 0 0 0 0 0 0 0 0 0 0 0 0
0 0 0 0 0 0 0 0 0 0 0 0 0 0 0 0 0 0 0 0 0 0 0 0 0 0 0 0 0 0 0 0 0 0 0 0 0 0 0 0 0 0 0
0 0 0 0 0 0 0 0 0 0 0 0 0 0 0 0 0 0 0 0 0 0 0 0 0 0 0 0 0 0 0 0 0 0 0 0 0 0 0 0 0 0 0
0 0 0 0 0 0 0 0 0 0 0 0 0 0 0 0 0 0 0 0 0 0 0 0 0 0 0 0 0 0 0 0 0 0 0 0 0 -0 0 0 0 0 0
0 0 0 0 0 0 0 0 0 0 0 0 0 0 0 0 0 0 0 0 0 0 0 0 0 0 0 0 0 0 0 0 0 0 0 0 0 0 -0 -0 -0 0 0
0 0 0 0 0 0 0 0 0 0 0 0 0 0 0 0 0 0 0 0 0 0 0 0 0 0 0 0 0 0 0 -0 0 0 0 0 -0 -0 -0 -0 -0 -0 -0
Wind_Speed_500mb
11 19 21 18 21 20 20 19 16 17 14 15 15 15 15 15 17 21 14 19 23 24 17 15 15 15 15 17 16 15 15 13 12 13 16 15 14 13 15 18 22 16 12
16 18 23 22 21 19 20 20 17 15 12 13 13 12 12 13 14 12 11 17 23 23 15 15 15 15 15 14 14 12 12 13 14 16 20 24 13 12 10 8 9 15 17
17 21 21 23 21 19 18 17 14 10 8 10 9 10 10 10 10 9 9 15 16 20 15 14 12 12 12 13 12 12 12 13 14 18 29 14 17 15 12 8 7 5 7
19 23 22 23 22 22 19 16 12 8 5 6 7 8 8 7 8 8 8 10 9 16 18 17 10 8 9 9 9 9 9 10 12 18 15 11 13 18 17 12 7 4 2
17 23 24 24 23 21 20 19 16 11 9 4 4 6 7 7 7 8 8 3 10 18 24 19 10 9 9 8 8 7 7 6 7 15 10 12 10 14 14 16 11 4 4
12 19 24 25 24 22 19 18 16 12 9 3 2 5 6 6 6 8 8 5 11 12 21 20 9 9 10 10 9 7 5 3 7 9 11 10 6 6 7 11 11 15 14
10 17 24 26 23 20 19 19 19 15 12 7 4 3 3 1 5 6 2 4 10 14 19 20 14 11 11 11 10 9 5 4 9 8 10 5 3 5 9 10 13 14 13
13 18 21 28 28 25 23 20 17 17 15 11 8 6 4 5 3 3 5 7 11 15 19 22 19 16 15 13 10 7 7 6 10 7 7 5 3 5 7 9 11 14 14
9 17 20 24 31 34 32 28 24 21 19 16 14 11 8 9 8 7 6 7 10 13 15 17 21 21 17 13 10 8 7 6 5 5 6 5 4 6 8 10 12 14 13
12 15 18 21 24 31 34 34 32 29 26 22 18 16 14 14 15 15 14 11 15 17 19 16 15 19 19 16 12 9 6 3 5 4 6 7 7 9 10 10 11 12 13
15 17 19 21 23 29 33 32 34 34 32 28 24 21 19 16 17 15 10 14 18 16 16 21 29 22 20 17 13 10 8 8 8 7 9 9 10 11 10 9 9 11 13
19 21 24 25 26 27 28 31 33 32 32 27 26 24 21 17 19 14 14 16 18 19 22 23 21 26 26 24 20 14 13 13 13 12 12 12 12 12 12 12 11 11 11
16 19 19 21 25 27 28 29 29 29 28 27 24 22 24 24 23 25 28 26 22 22 17 21 18 21 22 22 21 19 14 12 14 16 16 17 17 16 16 15 14 13 13
13 16 20 20 18 21 25 24 23 16 18 23 18 23 16 21 21 21 26 22 21 17 18 22 22 22 21 27 27 26 25 22 19 18 19 17 17 17 18 18 17 16 15
13 16 17 17 19 19 14 13 14 19 24 29 28 22 22 21 17 16 21 21 23 16 15 22 20 22 22 26 29 29 28 28 27 27 27 25 25 23 20 18 19 20 18
10 12 13 14 14 13 21 28 34 32 30 24 22 25 26 26 28 27 29 26 26 20 20 23 22 22 25 24 23 27 30 34 32 27 27 31 32 35 33 30 26 22 19
4 5 6 7 9 14 24 27 30 30 27 24 17 8 6 7 15 20 24 30 32 25 26 26 24 24 26 24 20 25 27 29 29 27 28 29 32 32 33 35 35 34 29
2 1 3 4 5 12 20 28 29 25 20 15 13 12 10 5 9 14 17 20 23 20 21 21 22 25 25 24 28 30 27 25 27 28 27 29 32 33 37 35 33 34 34
4 3 6 12 16 22 28 27 25 23 20 16 12 8 6 3 2 5 6 5 4 6 10 13 14 14 16 18 21 24 25 26 28 29 29 31 31 33 33 34 32 34 35
12 13 16 21 25 31 30 30 30 24 20 15 16 13 9 5 3 3 5 6 8 13 13 12 14 17 20 26 28 25 21 27 23 22 16 20 20 20 21 24 27 28 30
18 20 25 29 36 33 34 31 32 28 27 25 18 14 7 6 4 2 6 7 8 9 12 12 11 15 20 22 19 17 9 14 10 12 13 15 18 21 27 33 37 39 37
26 28 31 36 38 37 35 33 30 31 27 21 19 18 17 15 13 11 8 7 10 11 12 13 14 17 23 26 25 15 4 7 11 24 17 16 22 25 38 36 34 37 37
33 35 36 36 36 34 30 31 30 30 33 31 29 25 24 20 18 16 14 13 12 13 15 19 20 21 23 25 27 18 10 7 33 6 26 27 41 37 44 44 41 46 42
37 40 40 39 37 37 36 34 35 36 39 38 32 27 21 16 12 10 10 11 13 15 16 17 19 22 23 25 23 23 17 17 11 22 23 28 48 60 64 49 59 47 49
40 44 43 41 41 41 38 37 38 38 36 32 25 19 14 12 8 8 8 10 12 15 18 20 22 24 25 25 25 24 22 19 11 28 38 61 65 66 60 78 64 65 58
45 46 48 47 46 43 40 37 32 27 25 23 21 19 14 9 6 7 10 13 17 19 21 23 26 27 27 27 27 28 27 25 28 30 43 58 65 71 77 61 75 68 71
Wind_Direction_500mb
156 196 173 166 152 150 143 136 124 110 101 90 79 74 73 68 67 63 59 32 22 19 34 47 54 60 66 69 71 72 70 67 55 41 40 40 50 60 60 55 57 58 69
160 187 175 168 162 158 153 148 139 127 118 100 93 87 74 64 65 66 47 19 8 19 44 43 53 52 51 56 65 68 67 61 52 47 47 31 47 46 52 44 44 55 57
158 179 179 175 170 167 161 158 156 134 116 98 77 67 64 59 61 60 43 12 18 43 45 29 45 53 52 46 44 46 50 56 57 62 66 28 15 37 36 33 30 40 48
163 173 181 180 173 172 173 174 170 156 126 92 68 58 55 56 58 66 36 36 10 357 356 345 350 26 33 29 25 25 32 43 58 66 58 53 343 3 5 9 16 23 14
163 172 186 185 184 181 179 181 184 184 174 147 82 66 56 53 47 37 26 23 333 350 355 6 326 347 354 355 354 354 358 16 54 59 53 104 25 1 18 23 13 17 1
156 176 199 191 193 195 196 196 202 208 202 196 47 35 35 52 59 39 52 339 341 17 6 8 11 343 342 346 345 351 1 32 59 61 75 51 200 83 14 8 12 28 34
153 175 207 200 201 204 209 218 217 213 215 226 259 325 350 93 24 23 26 285 328 345 1 8 16 359 353 352 357 0 20 66 84 73 67 66 224 233 300 322 330 340 352
171 182 199 206 212 212 217 224 228 222 227 243 255 268 275 228 317 356 349 329 330 346 2 10 11 4 1 359 5 25 45 68 69 72 75 307 323 302 305 301 309 315 325
177 189 197 203 216 222 221 219 223 238 235 247 263 271 280 256 283 299 303 305 319 332 348 355 2 2 359 358 4 21 42 58 53 48 64 296 315 308 313 316 317 314 311
201 200 205 215 222 220 224 228 225 225 231 244 254 269 275 269 272 285 290 304 316 338 337 324 342 355 357 355 354 360 8 9 16 7 313 327 319 318 320 323 320 316 315
241 236 233 230 224 223 224 226 228 228 231 236 246 259 264 277 272 267 272 309 307 317 332 348 345 354 348 352 345 330 324 336 335 328 312 316 313 313 314 316 320 321 319
260 253 245 243 244 240 235 234 230 222 227 239 244 249 245 239 233 236 281 314 313 306 310 316 335 343 351 353 352 339 322 315 310 311 312 310 309 309 311 314 317 319 322
252 260 260 254 245 241 241 239 234 224 217 222 231 233 234 232 242 263 275 283 292 300 310 315 318 327 334 338 345 338 324 312 308 308 308 309 309 309 309 309 312 317 322
255 251 248 248 243 237 233 244 231 212 203 216 230 228 231 246 249 256 267 266 269 273 292 302 304 307 316 327 333 337 332 317 301 296 294 294 294 298 303 305 304 302 308
277 273 273 264 253 249 232 210 216 196 199 206 221 234 237 246 259 272 264 267 256 256 274 292 296 296 300 313 320 324 328 332 324 311 301 297 294 291 288 290 295 296 295
276 278 288 290 275 244 214 204 200 197 199 206 221 235 241 244 259 258 264 264 260 248 269 278 282 283 291 298 305 306 316 316 317 321 327 320 309 301 296 292 286 282 288
256 265 259 239 224 218 202 194 192 191 197 197 202 236 225 253 265 272 273 268 267 262 272 268 272 286 291 289 290 290 299 307 311 309 312 313 314 311 301 296 292 291 289
292 331 103 114 144 155 156 166 171 178 174 178 178 187 188 201 262 272 269 270 275 281 289 295 293 288 281 291 288 291 289 288 286 288 296 301 304 306 303 295 286 280 280
192 161 138 138 138 139 151 158 169 179 184 192 160 129 118 99 283 323 315 320 346 326 309 304 301 301 302 306 313 311 305 298 298 293 294 297 300 303 301 295 290 285 283
185 166 143 136 136 142 153 162 167 172 173 178 154 131 106 102 76 338 342 355 348 331 320 319 324 325 323 319 318 318 319 299 296 300 313 314 320 327 326 323 317 312 303
178 155 145 142 143 147 150 155 155 162 165 155 146 146 171 170 148 258 329 343 343 357 5 359 341 328 323 325 328 328 349 341 339 340 325 330 332 332 327 323 317 313 309
169 156 154 152 151 154 161 167 169 159 151 150 144 142 131 116 115 118 94 52 28 19 12 5 2 354 348 353 360 20 351 313 336 328 332 347 329 337 338 341 341 336 326
173 167 160 161 166 171 171 164 163 155 147 143 138 134 124 115 101 86 71 54 37 23 16 12 9 10 11 5 12 28 9 334 330 295 323 324 319 324 332 333 338 341 340
172 171 171 173 172 167 165 165 159 156 148 142 139 132 122 108 94 75 57 36 21 14 6 2 3 6 5 8 6 18 18 354 344 316 288 322 321 329 329 329 328 331 332
166 168 170 168 165 164 164 162 155 153 148 145 142 138 132 119 96 70 46 33 19 16 15 12 6 3 3 2 1 1 356 358 302 322 317 319 323 328 327 329 330 325 327
169 167 166 165 163 161 160 158 157 162 163 161 156 156 146 126 92 56 39 27 19 14 7 3 1 359 360 1 357 357 356 352 336 331 319 326 321 326 324 328 328 327 326
Wind_Speed_850mb
11 19 21 18 21 20 20 19 16 17 14 15 15 15 15 15 17 21 14 19 23 24 17 15 15 15 15 17 16 15 15 13 12 13 16 15 14 13 15 18 22 16 12
16 18 23 22 21 19 20 20 17 15 12 13 13 12 12 13 14 12 11 17 23 23 15 15 15 15 15 14 14 12 12 13 14 16 20 24 13 12 10 8 9 15 17
17 21 21 23 21 19 18 17 14 10 8 10 9 10 10 10 10 9 9 15 16 20 15 14 12 12 12 13 12 12 12 13 14 18 29 14 17 15 12 8 7 5 7
19 23 22 23 22 22 19 16 12 8 5 6 7 8 8 7 8 8 8 10 9 16 18 17 10 8 9 9 9 9 9 10 12 18 15 11 13 18 17 12 7 4 2
17 23 24 24 23 21 20 19 16 11 9 4 4 6 7 7 7 8 8 3 10 18 24 19 10 9 9 8 8 7 7 6 7 15 10 12 10 14 14 16 11 4 4
12 19 24 25 24 22 19 18 16 12 9 3 2 5 6 6 6 8 8 5 11 12 21 20 9 9 10 10 9 7 5 3 7 9 11 10 6 6 7 11 11 15 14
10 17 24 26 23 20 19 19 19 15 12 7 4 3 3 1 5 6 2 4 10 14 19 20 14 11 11 11 10 9 5 4 9 8 10 5 3 5 9 10 13 14 13
13 18 21 28 28 25 23 20 17 17 15 11 8 6 4 5 3 3 5 7 11 15 19 22 19 16 15 13 10 7 7 6 10 7 7 5 3 5 7 9 11 14 14
9 17 20 24 31 34 32 28 24 21 19 16 14 11 8 9 8 7 6 7 10 13 15 17 21 21 17 13 10 8 7 6 5 5 6 5 4 6 8 10 12 14 13
12 15 18 21 24 31 34 34 32 29 26 22 18 16 14 14 15 15 14 11 15 17 19 16 15 19 19 16 12 9 6 3 5 4 6 7 7 9 10 10 11 12 13
15 17 19 21 23 29 33 32 34 34 32 28 24 21 19 16 17 15 10 14 18 16 16 21 29 22 20 17 13 10 8 8 8 7 9 9 10 11 10 9 9 11 13
19 21 24 25 26 27 28 31 33 32 32 27 26 24 21 17 19 14 14 16 18 19 22 23 21 26 26 24 20 14 13 13 13 12 12 12 12 12 12 12 11 11 11
16 19 19 21 25 27 28 29 29 29 28 27 24 22 24 24 23 25 28 26 22 22 17 21 18 21 22 22 21 19 14 12 14 16 16 17 17 16 16 15 14 13 13
13 16 20 20 18 21 25 24 23 16 18 23 18 23 16 21 21 21 26 22 21 17 18 22 22 22 21 27 27 26 25 22 19 18 19 17 17 17 18 18 17 16 15
13 16 17 17 19 19 14 13 14 19 24 29 28 22 22 21 17 16 21 21 23 16 15 22 20 22 22 26 29 29 28 28 27 27 27 25 25 23 20 18 19 20 18
10 12 13 14 14 13 21 28 34 32 30 24 22 25 26 26 28 27 29 26 26 20 20 23 22 22 25 24 23 27 30 34 32 27 27 31 32 35 33 30 26 22 19
4 5 6 7 9 14 24 27 30 30 27 24 17 8 6 7 15 20 24 30 32 25 26 26 24 24 26 24 20 25 27 29 29 27 28 29 32 32 33 35 35 34 29
2 1 3 4 5 12 20 28 29 25 20 15 13 12 10 5 9 14 17 20 23 20 21 21 22 25 25 24 28 30 27 25 27 28 27 29 32 33 37 35 33 34 34
4 3 6 12 16 22 28 27 25 23 20 16 12 8 6 3 2 5 6 5 4 6 10 13 14 14 16 18 21 24 25 26 28 29 29 31 31 33 33 34 32 34 35
12 13 16 21 25 31 30 30 30 24 20 15 16 13 9 5 3 3 5 6 8 13 13 12 14 17 20 26 28 25 21 27 23 22 16 20 20 20 21 24 27 28 30
18 20 25 29 36 33 34 31 32 28 27 25 18 14 7 6 4 2 6 7 8 9 12 12 11 15 20 22 19 17 9 14 10 12 13 15 18 21 27 33 37 39 37
26 28 31 36 38 37 35 33 30 31 27 21 19 18 17 15 13 11 8 7 10 11 12 13 14 17 23 26 25 15 4 7 11 24 17 16 22 25 38 36 34 37 37
33 35 36 36 36 34 30 31 30 30 33 31 29 25 24 20 18 16 14 13 12 13 15 19 20 21 23 25 27 18 10 7 33 6 26 27 41 37 44 44 41 46 42
37 40 40 39 37 37 36 34 35 36 39 38 32 27 21 16 12 10 10 11 13 15 16 17 19 22 23 25 23 23 17 17 11 22 23 28 48 60 64 49 59 47 49
40 44 43 41 41 41 38 37 38 38 36 32 25 19 14 12 8 8 8 10 12 15 18 20 22 24 25 25 25 24 22 19 11 28 38 61 65 66 60 78 64 65 58
45 46 48 47 46 43 40 37 32 27 25 23 21 19 14 9 6 7 10 13 17 19 21 23 26 27 27 27 27 28 27 25 28 30 43 58 65 71 77 61 75 68 71
Wind_Direction_850mb
156 196 173 166 152 150 143 136 124 110 101 90 79 74 73 68 67 63 59 32 22 19 34 47 54 60 66 69 71 72 70 67 55 41 40 40 50 60 60 55 57 58 69
160 187 175 168 162 158 153 148 139 127 118 100 93 87 74 64 65 66 47 19 8 19 44 43 53 52 51 56 65 68 67 61 52 47 47 31 47 46 52 44 44 55 57
158 179 179 175 170 167 161 158 156 134 116 98 77 67 64 59 61 60 43 12 18 43 45 29 45 53 52 46 44 46 50 56 57 62 66 28 15 37 36 33 30 40 48
163 173 181 180 173 172 173 174 170 156 126 92 68 58 55 56 58 66 36 36 10 357 356 345 350 26 33 29 25 25 32 43 58 66 58 53 343 3 5 9 16 23 14
163 172 186 185 184 181 179 181 184 184 174 147 82 66 56 53 47 37 26 23 333 350 355 6 326 347 354 355 354 354 358 16 54 59 53 104 25 1 18 23 13 17 1
156 176 199 191 193 195 196 196 202 208 202 196 47 35 35 52 59 39 52 339 341 17 6 8 11 343 342 346 345 351 1 32 59 61 75 51 200 83 14 8 12 28 34
153 175 207 200 201 204 209 218 217 213 215 226 259 325 350 93 24 23 26 285 328 345 1 8 16 359 353 352 357 0 20 66 84 73 67 66 224 233 300 322 330 340 352
171 182 199 206 212 212 217 224 228 222 227 243 255 268 275 228 317 356 349 329 330 346 2 10 11 4 1 359 5 25 45 68 69 72 75 307 323 302 305 301 309 315 325
177 189 197 203 216 222 221 219 223 238 235 247 263 271 280 256 283 299 303 305 319 332 348 355 2 2 359 358 4 21 42 58 53 48 64 296 315 308 313 316 317 314 311
201 200 205 215 222 220 224 228 225 225 231 244 254 269 275 269 272 285 290 304 316 338 337 324 342 355 357 355 354 360 8 9 16 7 313 327 319 318 320 323 320 316 315
241 236 233 230 224 223 224 226 228 228 231 236 246 259 264 277 272 267 272 309 307 317 332 348 345 354 348 352 345 330 324 336 335 328 312 316 313 313 314 316 320 321 319
260 253 245 243 244 240 235 234 230 222 227 239 244 249 245 239 233 236 281 314 313 306 310 316 335 343 351 353 352 339 322 315 310 311 312 310 309 309 311 314 317 319 322
252 260 260 254 245 241 241 239 234 224 217 222 231 233 234 232 242 263 275 283 292 300 310 315 318 327 334 338 345 338 324 312 308 308 308 309 309 309 309 309 312 317 322
255 251 248 248 243 237 233 244 231 212 203 216 230 228 231 246 249 256 267 266 269 273 292 302 304 307 316 327 333 337 332 317 301 296 294 294 294 298 303 305 304 302 308
277 273 273 264 253 249 232 210 216 196 199 206 221 234 237 246 259 272 264 267 256 256 274 292 296 296 300 313 320 324 328 332 324 311 301 297 294 291 288 290 295 296 295
276 278 288 290 275 244 214 204 200 197 199 206 221 235 241 244 259 258 264 264 260 248 269 278 282 283 291 298 305 306 316 316 317 321 327 320 309 301 296 292 286 282 288
256 265 259 239 224 218 202 194 192 191 197 197 202 236 225 253 265 272 273 268 267 262 272 268 272 286 291 289 290 290 299 307 311 309 312 313 314 311 301 296 292 291 289
292 331 103 114 144 155 156 166 171 178 174 178 178 187 188 201 262 272 269 270 275 281 289 295 293 288 281 291 288 291 289 288 286 288 296 301 304 306 303 295 286 280 280
192 161 138 138 138 139 151 158 169 179 184 192 160 129 118 99 283 323 315 320 346 326 309 304 301 301 302 306 313 311 305 298 298 293 294 297 300 303 301 295 290 285 283
185 166 143 136 136 142 153 162 167 172 173 178 154 131 106 102 76 338 342 355 348 331 320 319 324 325 323 319 318 318 319 299 296 300 313 314 320 327 326 323 317 312 303
178 155 145 142 143 147 150 155 155 162 165 155 146 146 171 170 148 258 329 343 343 357 5 359 341 328 323 325 328 328 349 341 339 340 325 330 332 332 327 323 317 313 309
169 156 154 152 151 154 161 167 169 159 151 150 144 142 131 116 115 118 94 52 28 19 12 5 2 354 348 353 360 20 351 313 336 328 332 347 329 337 338 341 341 336 326
173 167 160 161 166 171 171 164 163 155 147 143 138 134 124 115 101 86 71 54 37 23 16 12 9 10 11 5 12 28 9 334 330 295 323 324 319 324 332 333 338 341 340
172 171 171 173 172 167 165 165 159 156 148 142 139 132 122 108 94 75 57 36 21 14 6 2 3 6 5 8 6 18 18 354 344 316 288 322 321 329 329 329 328 331 332
166 168 170 168 165 164 164 162 155 153 148 145 142 138 132 119 96 70 46 33 19 16 15 12 6 3 3 2 1 1 356 358 302 322 317 319 323 328 327 329 330 325 327
169 167 166 165 163 161 160 158 157 162 163 161 156 156 146 126 92 56 39 27 19 14 7 3 1 359 360 1 357 357 356 352 336 331 319 326 321 326 324 328 328 327 326